Content
SEND FEEDBACK

Daily
Averages
Monthly
Summary
United States of America

DES PLAINES, ILLINOIS


Home > North America > United States > Illinois
Elevation: 651 feet     Latitude: 42 00N     Longitude: 087 54W

WEATHER
 
SELECT A DAY
Number of Records: 199,557;   Date Range: 7/8/95 - 12/17/14
 
SHARE

PRINT THIS DATA

[ ← Previous Day ]
WEATHER ALMANAC - JULY 13, 2014
[ Next Day → ]
[ °C ]   °F
Weather ElementAverageHighLow
Temperature75.1 °F86 °F (5:52 pm)69.1 °F (8:52 pm)
Dewpoint64.8 °F69.8 °F (6:46 am)50 °F (10:52 am)
Humidity73.3 %94 % (8:49 am)41 % (4:52 pm)
Barometer29.89 in29.96 in (4:29 am)29.84 in (6:52 am)
Wind Speed7.5 mph13.8 mph (10:18 am)
Wind Gust23 mph (12:52 pm)
Weather ElementAverage
Visibility9.9 mi
Wind DirectionWSW (252.8 °)

Weather ElementTotal
Precipitation0.08 in
Cooling Degree Days12.6 (Base 65)
Growing Degree Days27.6 (Base 50)
Averaged from 36 records on July 13, 2014
WEATHER CONDITIONS BREAKOUT
WIND DIRECTION BREAKOUT
WEATHER BY HOUR - JULY 13, 2014
[ °C ]   °F
Local TimeTemperatureDewpointHumidityBarometerVisibilityWind DirectionWind SpeedGust SpeedPrecipitationEventsConditions
12:00 AM73.0 °F69.1 °F87 %29.89 in8.0 miWest (280°)13.8 mph23.0 mph0.01 inRainLight Rain
12:52 AM72.0 °F68.0 °F87 %29.85 in10.0 miVariable3.5 mph0.07 inScattered Clouds
1:31 AM72.0 °F69.1 °F91 %29.86 in10.0 miWest (260°)4.6 mphOvercast
1:52 AM72.0 °F69.1 °F91 %29.84 in10.0 miWSW (250°)4.6 mphMostly Cloudy
2:01 AM72.0 °F69.1 °F91 %29.86 in10.0 miWSW (240°)4.6 mphOvercast
2:11 AM72.0 °F69.1 °F91 %29.86 in10.0 miWSW (250°)4.6 mphOvercast
2:19 AM72.0 °F69.1 °F91 %29.87 in10.0 miWest (260°)3.5 mphOvercast
2:38 AM72.0 °F69.1 °F91 %29.87 in10.0 miWNW (300°)6.9 mphOvercast
2:47 AM71.6 °F69.8 °F94 %29.87 in10.0 miWNW (290°)8.1 mphOvercast
2:52 AM72.0 °F69.1 °F91 %29.86 in10.0 miWNW (290°)6.9 mphOvercast
3:42 AM71.1 °F68.0 °F90 %29.87 in10.0 miNW (310°)11.5 mphOvercast
3:52 AM71.1 °F68.0 °F90 %29.86 in10.0 miWNW (300°)6.9 mphOvercast
4:36 AM70.0 °F66.9 °F90 %29.90 in10.0 miWNW (290°)4.6 mphScattered Clouds
4:52 AM70.0 °F66.9 °F90 %29.90 in10.0 miWest (260°)3.5 mphScattered Clouds
5:03 AM70.0 °F66.9 °F90 %29.91 in10.0 miWSW (250°)3.5 mphScattered Clouds
5:52 AM69.1 °F66.0 °F90 %29.90 in10.0 miWNW (290°)4.6 mphClear
6:30 AM69.1 °F66.0 °F90 %29.93 in10.0 miWNW (300°)6.9 mphMostly Cloudy
6:52 AM69.1 °F64.9 °F87 %29.92 in10.0 miWNW (290°)6.9 mphOvercast
7:52 AM69.1 °F64.9 °F87 %29.94 in10.0 miWest (270°)5.8 mphMostly Cloudy
8:49 AM71.6 °F64.4 °F78 %29.96 in10.0 miVariable4.6 mphPartly Cloudy
8:52 AM72.0 °F64.0 °F76 %29.95 in10.0 miVariable5.8 mphPartly Cloudy
9:52 AM75.0 °F64.9 °F71 %29.93 in10.0 miSW (230°)5.8 mphClear
10:52 AM78.1 °F63.0 °F60 %29.93 in10.0 miWNW (300°)12.7 mph17.3 mphClear
11:52 AM80.1 °F64.9 °F60 %29.94 in10.0 miWest (270°)8.1 mphClear
12:52 PM82.9 °F62.1 °F49 %29.92 in10.0 miWest (270°)9.2 mphClear
1:52 PM84.0 °F60.1 °F44 %29.91 in10.0 miWest (280°)10.4 mphClear
2:52 PM84.0 °F61.0 °F46 %29.90 in10.0 miWest (260°)10.4 mphPartly Cloudy
3:52 PM86.0 °F60.1 °F41 %29.88 in10.0 miWest (260°)10.4 mph16.1 mphClear
4:52 PM84.9 °F60.1 °F43 %29.87 in10.0 miWest (270°)9.2 mphPartly Cloudy
5:52 PM84.0 °F62.1 °F47 %29.87 in10.0 miWest (280°)10.4 mphScattered Clouds
6:52 PM82.9 °F62.1 °F49 %29.87 in10.0 miWest (270°)13.8 mphPartly Cloudy
7:52 PM82.0 °F64.0 °F54 %29.87 in10.0 miWSW (250°)8.1 mphClear
8:52 PM80.1 °F64.9 °F60 %29.87 in10.0 miWest (280°)9.2 mphMostly Cloudy
9:52 PM78.1 °F63.0 °F60 %29.89 in10.0 miWNW (300°)9.2 mphClear
10:52 PM75.0 °F53.1 °F46 %29.90 in10.0 miWNW (300°)10.4 mphClear
11:52 PM72.0 °F50.0 °F46 %29.90 in10.0 miWNW (300°)6.9 mphClear
Hourly data recorded from KPWK, located miles away from Des Plaines, Illinois







STORIES FROM OUR PARTNERS